Time,TemperatureF,DewpointF,PressureIn,WindDirection,WindDirectionDegrees,WindSpeedMPH,WindSpeedGustMPH,Humidity,HourlyPrecipIn,Conditions,Clouds,dailyrainin,SoftwareType,DateUTC
2013-02-01 00:07:00,41.9,28.6,29.90,WSW,247,4.2,-999.0,59,-99.99,,,0.00,Acu-Link.com,2013-02-01 05:07:00,
2013-02-01 00:23:00,42.4,29.1,29.89,West,270,4.7,-999.0,59,-99.99,,,0.00,Acu-Link.com,2013-02-01 05:23:00,
2013-02-01 00:38:00,42.8,29.5,29.88,ESE,112,4.2,-999.0,59,-99.99,,,0.00,Acu-Link.com,2013-02-01 05:38:00,
2013-02-01 00:53:00,42.3,28.6,29.90,WSW,247,4.2,-999.0,58,-99.99,,,0.00,Acu-Link.com,2013-02-01 05:53:00,
2013-02-01 01:09:00,42.1,29.2,29.91,SW,225,2.2,-999.0,60,-99.99,,,0.00,Acu-Link.com,2013-02-01 06:09:00,
2013-02-01 01:24:00,42.4,29.1,29.92,SW,225,3.2,-999.0,59,-99.99,,,0.00,Acu-Link.com,2013-02-01 06:24:00,
2013-02-01 01:39:00,44.2,30.8,29.92,ENE,67,2.2,-999.0,59,-99.99,,,0.00,Acu-Link.com,2013-02-01 06:39:00,
2013-02-01 01:55:00,44.6,32.0,29.93,WSW,247,5.3,-999.0,61,-99.99,,,0.00,Acu-Link.com,2013-02-01 06:55:00,
2013-02-01 02:10:00,43.3,33.8,29.95,SSE,157,4.7,-999.0,69,-99.99,,,0.00,Acu-Link.com,2013-02-01 07:10:00,
2013-02-01 02:25:00,41.2,35.5,29.96,NNW,337,2.7,-999.0,80,-99.99,,,0.00,Acu-Link.com,2013-02-01 07:25:00,
2013-02-01 02:40:00,37.8,32.8,29.98,NW,315,3.7,-999.0,82,-99.99,,,0.00,Acu-Link.com,2013-02-01 07:40:00,
2013-02-01 02:56:00,36.7,31.1,29.99,NW,315,5.8,-999.0,80,-99.99,,,0.00,Acu-Link.com,2013-02-01 07:56:00,
2013-02-01 03:11:00,36.1,29.6,29.99,SW,225,3.2,-999.0,77,-99.99,,,0.00,Acu-Link.com,2013-02-01 08:11:00,
2013-02-01 03:26:00,35.4,28.9,30.00,NNE,22,2.7,-999.0,77,-99.99,,,0.00,Acu-Link.com,2013-02-01 08:26:00,
2013-02-01 03:41:00,34.5,26.8,30.01,NNE,22,5.3,-999.0,73,-99.99,,,0.00,Acu-Link.com,2013-02-01 08:41:00,
2013-02-01 03:56:00,34.2,25.8,30.01,NE,45,3.7,-999.0,71,-99.99,,,0.00,Acu-Link.com,2013-02-01 08:56:00,
2013-02-01 04:17:00,34.0,25.9,30.02,SSW,202,2.2,-999.0,72,-99.99,,,0.00,Acu-Link.com,2013-02-01 09:17:00,
2013-02-01 04:32:00,33.6,25.9,30.03,West,270,2.2,-999.0,73,-99.99,,,0.00,Acu-Link.com,2013-02-01 09:32:00,
2013-02-01 04:47:00,32.2,23.5,30.05,NNE,22,2.7,-999.0,70,-99.99,,,0.00,Acu-Link.com,2013-02-01 09:47:00,
2013-02-01 05:02:00,30.6,18.4,30.06,West,270,2.2,-999.0,60,-99.99,,,0.00,Acu-Link.com,2013-02-01 10:02:00,
2013-02-01 05:17:00,29.5,17.3,30.08,WNW,292,3.7,-999.0,60,-99.99,,,0.00,Acu-Link.com,2013-02-01 10:17:00,
2013-02-01 05:33:00,29.3,19.0,30.09,ENE,67,0.0,-999.0,65,-99.99,,,0.00,Acu-Link.com,2013-02-01 10:33:00,
2013-02-01 05:48:00,28.6,18.7,30.09,North,0,1.1,-999.0,66,-99.99,,,0.00,Acu-Link.com,2013-02-01 10:48:00,
2013-02-01 06:03:00,27.5,16.9,30.11,NNW,337,6.8,-999.0,64,-99.99,,,0.00,Acu-Link.com,2013-02-01 11:03:00,
2013-02-01 06:19:00,26.6,16.8,30.12,WNW,292,5.8,-999.0,66,-99.99,,,0.00,Acu-Link.com,2013-02-01 11:19:00,
2013-02-01 06:34:00,25.7,14.9,30.14,WNW,292,2.2,-999.0,63,-99.99,,,0.00,Acu-Link.com,2013-02-01 11:34:00,
2013-02-01 06:49:00,24.4,13.3,30.16,West,270,3.2,-999.0,62,-99.99,,,0.00,Acu-Link.com,2013-02-01 11:49:00,
2013-02-01 07:05:00,23.4,12.3,30.17,NNW,337,2.2,-999.0,62,-99.99,,,0.00,Acu-Link.com,2013-02-01 12:05:00,
2013-02-01 07:20:00,22.8,11.4,30.19,WNW,292,2.2,-999.0,61,-99.99,,,0.00,Acu-Link.com,2013-02-01 12:20:00,
2013-02-01 07:35:00,22.5,11.5,30.19,NNW,337,4.7,-999.0,62,-99.99,,,0.00,Acu-Link.com,2013-02-01 12:35:00,
2013-02-01 07:50:00,22.5,11.8,30.20,NNW,337,4.7,-999.0,63,-99.99,,,0.00,Acu-Link.com,2013-02-01 12:50:00,
2013-02-01 08:06:00,22.5,11.5,30.20,NNW,337,3.7,-999.0,62,-99.99,,,0.00,Acu-Link.com,2013-02-01 13:06:00,
2013-02-01 08:21:00,22.5,11.5,30.22,West,270,4.7,-999.0,62,-99.99,,,0.00,Acu-Link.com,2013-02-01 13:21:00,
2013-02-01 08:36:00,23.2,12.1,30.22,South,180,0.0,-999.0,62,-99.99,,,0.00,Acu-Link.com,2013-02-01 13:36:00,
2013-02-01 08:52:00,24.4,12.5,30.23,ENE,67,0.0,-999.0,60,-99.99,,,0.00,Acu-Link.com,2013-02-01 13:52:00,
2013-02-01 09:07:00,24.1,11.1,30.24,NNW,337,4.7,-999.0,57,-99.99,,,0.00,Acu-Link.com,2013-02-01 14:07:00,
2013-02-01 09:22:00,25.3,11.4,30.24,ENE,67,2.2,-999.0,55,-99.99,,,0.00,Acu-Link.com,2013-02-01 14:22:00,
2013-02-01 09:38:00,25.9,11.6,30.26,NNE,22,4.2,-999.0,54,-99.99,,,0.00,Acu-Link.com,2013-02-01 14:38:00,
2013-02-01 09:53:00,26.2,11.4,30.26,ENE,67,3.2,-999.0,53,-99.99,,,0.00,Acu-Link.com,2013-02-01 14:53:00,
2013-02-01 10:08:00,25.9,10.3,30.26,WNW,292,2.2,-999.0,51,-99.99,,,0.00,Acu-Link.com,2013-02-01 15:08:00,
2013-02-01 10:24:00,27.1,11.8,30.27,NNE,22,4.2,-999.0,52,-99.99,,,0.00,Acu-Link.com,2013-02-01 15:24:00,
2013-02-01 10:39:00,28.4,12.6,30.27,NNE,22,0.0,-999.0,51,-99.99,,,0.00,Acu-Link.com,2013-02-01 15:39:00,
2013-02-01 10:54:00,29.3,12.5,30.27,West,270,2.7,-999.0,49,-99.99,,,0.00,Acu-Link.com,2013-02-01 15:54:00,
2013-02-01 11:10:00,29.7,12.4,30.27,NNE,22,2.2,-999.0,48,-99.99,,,0.00,Acu-Link.com,2013-02-01 16:10:00,
2013-02-01 11:25:00,30.9,14.5,30.27,ESE,112,2.7,-999.0,50,-99.99,,,0.00,Acu-Link.com,2013-02-01 16:25:00,
2013-02-01 11:40:00,30.9,14.0,30.26,North,0,3.2,-999.0,49,-99.99,,,0.00,Acu-Link.com,2013-02-01 16:40:00,
2013-02-01 11:56:00,32.9,15.4,30.27,NNE,22,2.7,-999.0,48,-99.99,,,0.00,Acu-Link.com,2013-02-01 16:56:00,
2013-02-01 12:11:00,33.6,15.1,30.26,NW,315,3.2,-999.0,46,-99.99,,,0.00,Acu-Link.com,2013-02-01 17:11:00,
2013-02-01 12:26:00,33.4,12.3,30.26,WNW,292,3.2,-999.0,41,-99.99,,,0.00,Acu-Link.com,2013-02-01 17:26:00,
2013-02-01 12:41:00,34.0,11.7,30.25,NE,45,5.3,-999.0,39,-99.99,,,0.00,Acu-Link.com,2013-02-01 17:41:00,
2013-02-01 12:57:00,34.2,11.9,30.24,NE,45,3.7,-999.0,39,-99.99,,,0.00,Acu-Link.com,2013-02-01 17:57:00,
2013-02-01 13:12:00,34.5,12.1,30.24,North,0,2.7,-999.0,39,-99.99,,,0.00,Acu-Link.com,2013-02-01 18:12:00,
2013-02-01 13:27:00,35.2,12.2,30.23,NNE,22,2.2,-999.0,38,-99.99,,,0.00,Acu-Link.com,2013-02-01 18:27:00,
2013-02-01 13:43:00,34.9,12.5,30.22,SSE,157,2.7,-999.0,39,-99.99,,,0.00,Acu-Link.com,2013-02-01 18:43:00,
2013-02-01 13:58:00,35.6,11.9,30.21,NNW,337,1.7,-999.0,37,-99.99,,,0.00,Acu-Link.com,2013-02-01 18:58:00,
2013-02-01 14:13:00,35.6,11.3,30.21,WSW,247,2.7,-999.0,36,-99.99,,,0.00,Acu-Link.com,2013-02-01 19:13:00,
2013-02-01 14:29:00,35.2,9.7,30.21,SSE,157,3.2,-999.0,34,-99.99,,,0.00,Acu-Link.com,2013-02-01 19:29:00,
2013-02-01 14:44:00,36.1,9.8,30.21,NNE,22,2.7,-999.0,33,-99.99,,,0.00,Acu-Link.com,2013-02-01 19:44:00,
2013-02-01 14:59:00,37.6,10.4,30.21,WNW,292,3.2,-999.0,32,-99.99,,,0.00,Acu-Link.com,2013-02-01 19:59:00,
2013-02-01 15:14:00,37.4,11.0,30.21,SSW,202,1.7,-999.0,33,-99.99,,,0.00,Acu-Link.com,2013-02-01 20:14:00,
2013-02-01 15:30:00,38.3,10.3,30.20,ESE,112,2.2,-999.0,31,-99.99,,,0.00,Acu-Link.com,2013-02-01 20:30:00,
2013-02-01 15:45:00,37.4,9.6,30.20,NNE,22,2.7,-999.0,31,-99.99,,,0.00,Acu-Link.com,2013-02-01 20:45:00,
2013-02-01 16:00:00,38.7,10.0,30.20,SSW,202,0.0,-999.0,30,-99.99,,,0.00,Acu-Link.com,2013-02-01 21:00:00,
2013-02-01 16:15:00,38.8,12.2,30.19,North,0,2.2,-999.0,33,-99.99,,,0.00,Acu-Link.com,2013-02-01 21:15:00,
2013-02-01 16:31:00,39.4,9.8,30.19,WNW,292,2.7,-999.0,29,-99.99,,,0.00,Acu-Link.com,2013-02-01 21:31:00,
2013-02-01 16:46:00,39.0,10.2,30.19,South,180,2.2,-999.0,30,-99.99,,,0.00,Acu-Link.com,2013-02-01 21:46:00,
2013-02-01 17:01:00,38.1,9.4,30.20,SW,225,1.7,-999.0,30,-99.99,,,0.00,Acu-Link.com,2013-02-01 22:01:00,
2013-02-01 17:17:00,39.9,5.1,30.19,NNE,22,3.2,-999.0,23,-99.99,,,0.00,Acu-Link.com,2013-02-01 22:17:00,
2013-02-01 17:32:00,37.4,8.1,30.20,NNE,22,3.2,-999.0,29,-99.99,,,0.00,Acu-Link.com,2013-02-01 22:32:00,
2013-02-01 17:47:00,34.9,4.4,30.20,North,0,4.7,-999.0,27,-99.99,,,0.00,Acu-Link.com,2013-02-01 22:47:00,
2013-02-01 18:03:00,33.8,6.4,30.20,ENE,67,1.7,-999.0,31,-99.99,,,0.00,Acu-Link.com,2013-02-01 23:03:00,
2013-02-01 18:18:00,32.7,7.5,30.20,WNW,292,0.0,-999.0,34,-99.99,,,0.00,Acu-Link.com,2013-02-01 23:18:00,
2013-02-01 18:33:00,31.3,8.7,30.20,NNW,337,0.0,-999.0,38,-99.99,,,0.00,Acu-Link.com,2013-02-01 23:33:00,
2013-02-01 18:48:00,30.0,9.2,30.21,NW,315,1.7,-999.0,41,-99.99,,,0.00,Acu-Link.com,2013-02-01 23:48:00,
2013-02-01 19:04:00,29.8,10.1,30.21,West,270,1.1,-999.0,43,-99.99,,,0.00,Acu-Link.com,2013-02-02 00:04:00,
2013-02-01 19:19:00,29.1,10.9,30.21,NNW,337,1.7,-999.0,46,-99.99,,,0.00,Acu-Link.com,2013-02-02 00:19:00,
2013-02-01 19:34:00,28.8,11.1,30.22,NNE,22,0.0,-999.0,47,-99.99,,,0.00,Acu-Link.com,2013-02-02 00:34:00,
2013-02-01 19:50:00,27.7,12.0,30.22,NNE,22,0.0,-999.0,51,-99.99,,,0.00,Acu-Link.com,2013-02-02 00:50:00,
2013-02-01 20:05:00,26.8,12.0,30.21,West,270,0.0,-999.0,53,-99.99,,,0.00,Acu-Link.com,2013-02-02 01:05:00,
2013-02-01 20:20:00,26.1,11.3,30.22,SW,225,0.0,-999.0,53,-99.99,,,0.00,Acu-Link.com,2013-02-02 01:20:00,
2013-02-01 20:36:00,25.2,13.3,30.22,NW,315,0.0,-999.0,60,-99.99,,,0.00,Acu-Link.com,2013-02-02 01:36:00,
2013-02-01 20:51:00,25.3,14.5,30.22,West,270,0.0,-999.0,63,-99.99,,,0.00,Acu-Link.com,2013-02-02 01:51:00,
2013-02-01 21:06:00,25.3,14.5,30.22,WNW,292,0.0,-999.0,63,-99.99,,,0.00,Acu-Link.com,2013-02-02 02:06:00,
2013-02-01 21:21:00,25.0,14.2,30.22,WNW,292,0.0,-999.0,63,-99.99,,,0.00,Acu-Link.com,2013-02-02 02:21:00,
2013-02-01 21:37:00,25.2,14.4,30.22,SSE,157,0.0,-999.0,63,-99.99,,,0.00,Acu-Link.com,2013-02-02 02:37:00,
2013-02-01 21:52:00,24.3,14.6,30.22,West,270,0.0,-999.0,66,-99.99,,,0.00,Acu-Link.com,2013-02-02 02:52:00,
2013-02-01 22:07:00,24.1,14.1,30.22,West,270,0.0,-999.0,65,-99.99,,,0.00,Acu-Link.com,2013-02-02 03:07:00,
2013-02-01 22:23:00,23.7,14.0,30.22,ESE,112,0.0,-999.0,66,-99.99,,,0.00,Acu-Link.com,2013-02-02 03:23:00,
2013-02-01 22:38:00,23.4,14.4,30.23,WNW,292,0.0,-999.0,68,-99.99,,,0.00,Acu-Link.com,2013-02-02 03:38:00,
2013-02-01 22:53:00,23.4,14.1,30.22,WNW,292,0.0,-999.0,67,-99.99,,,0.00,Acu-Link.com,2013-02-02 03:53:00,
2013-02-01 23:09:00,22.3,14.7,30.23,WNW,292,0.0,-999.0,72,-99.99,,,0.00,Acu-Link.com,2013-02-02 04:09:00,
2013-02-01 23:24:00,23.2,15.2,30.23,WNW,292,1.7,-999.0,71,-99.99,,,0.00,Acu-Link.com,2013-02-02 04:24:00,
2013-02-01 23:39:00,23.4,15.7,30.22,West,270,0.0,-999.0,72,-99.99,,,0.00,Acu-Link.com,2013-02-02 04:39:00,
2013-02-01 23:54:00,23.4,16.0,30.22,NW,315,0.0,-999.0,73,-99.99,,,0.00,Acu-Link.com,2013-02-02 04:54:00,